Temp
20 19 19 19 19 19 19 19 19 18 18 18 18 17 17 17 17 16 16 16 16 15 15 15 15 15 15 15 15 15 14 14 14 15 15 15 15 15 15 15 15 14 14
20 20 19 19 19 19 19 19 18 18 18 18 18 17 17 17 16 16 16 15 15 15 15 15 15 15 15 15 14 14 14 14 14 15 15 15 15 15 15 15 14 14 14
20 19 19 19 19 19 18 18 18 18 17 17 17 17 16 16 16 16 16 15 15 15 14 14 14 14 14 14 14 14 14 14 14 15 15 15 15 14 14 14 14 14 13
19 19 19 19 19 18 18 18 18 18 17 17 17 16 16 16 16 15 15 15 15 15 14 14 13 14 14 13 13 14 14 14 15 15 15 14 14 14 14 13 13 13 13
19 19 19 19 18 18 18 17 17 17 17 17 17 16 16 16 16 16 15 15 15 15 14 14 14 14 13 13 13 14 14 15 15 14 14 14 14 14 13 13 13 12 13
19 19 18 18 18 18 18 17 17 17 17 17 16 16 16 16 16 16 16 16 15 15 15 15 14 14 14 13 13 13 14 14 14 14 14 13 13 13 13 13 12 12 12
18 18 19 18 18 18 18 18 17 16 16 16 15 15 16 16 16 15 15 15 15 15 15 15 15 14 14 13 13 13 14 14 14 14 13 13 13 12 13 13 12 12 12
18 18 18 19 18 18 17 17 16 16 16 16 15 15 15 15 15 15 15 15 15 15 15 14 14 14 14 13 13 13 13 13 13 13 13 13 12 12 12 12 11 11 11
18 18 18 19 18 18 18 17 17 16 16 16 16 15 14 15 16 16 16 16 15 15 15 14 14 14 13 13 13 13 13 12 13 13 12 12 12 12 11 11 11 10 10
17 18 18 18 18 18 18 18 17 17 16 16 16 15 15 16 16 16 16 17 15 15 15 14 14 13 13 13 13 13 13 13 13 12 12 12 12 11 11 11 10 10 10
18 18 17 18 18 17 18 18 17 17 16 16 16 16 15 15 15 15 16 17 16 15 14 14 14 13 13 13 13 13 12 12 12 12 12 11 11 11 11 10 10 10 9
19 18 18 18 18 18 18 18 18 17 17 16 16 16 16 15 14 15 15 15 16 15 14 13 13 13 13 13 13 12 12 12 12 12 11 11 11 10 10 10 9 9 9
20 21 20 19 18 18 18 17 17 17 17 16 16 16 16 16 15 15 15 14 15 14 13 13 13 12 13 13 12 12 12 12 11 11 11 11 10 10 9 9 9 8 8
20 20 20 19 19 19 18 17 17 17 17 16 16 16 15 16 15 15 15 15 14 14 14 13 13 12 11 11 11 11 11 11 11 11 10 10 9 9 9 9 8 8 8
19 19 19 20 19 19 18 18 18 17 17 17 17 16 15 15 15 15 15 14 14 14 13 13 12 12 11 10 10 10 10 10 10 10 10 10 9 8 8 7 7 8 7
18 18 19 19 19 19 18 18 18 17 17 17 16 16 15 15 15 15 15 14 14 13 13 12 12 12 12 11 11 10 10 10 10 10 9 9 8 7 7 6 6 6 7
18 19 19 19 18 18 18 18 18 17 17 17 17 16 16 15 15 16 15 14 14 13 13 12 13 12 11 11 10 10 10 9 9 9 8 8 7 6 6 5 6 6 6
18 18 18 18 18 17 17 17 17 17 17 17 16 16 16 15 16 16 15 14 14 14 13 12 12 9 10 10 9 9 9 9 9 8 8 7 6 6 6 6 6 5 5
17 17 17 17 17 16 16 16 16 16 16 16 16 16 16 16 15 15 15 15 14 13 13 13 12 9 10 9 9 8 9 8 8 8 7 7 6 6 6 5 5 4 4
15 16 17 17 17 16 15 15 15 15 15 16 15 15 15 15 15 15 15 15 14 13 12 12 11 10 10 9 8 8 8 9 8 7 6 6 5 5 5 5 4 4 4
14 14 15 15 16 16 16 15 15 15 15 15 15 14 14 13 14 14 14 15 14 13 11 10 9 9 9 9 8 9 8 8 7 6 6 4 5 4 3 3 3 4 3
13 13 14 14 14 15 15 14 14 14 14 14 14 15 15 14 14 13 14 14 14 13 12 10 9 9 9 8 8 8 8 7 5 5 6 5 4 3 2 3 3 3 2
11 12 12 13 14 14 13 14 14 14 14 14 13 13 14 14 13 13 12 13 12 12 11 11 10 8 7 9 8 8 7 6 5 5 6 5 4 2 2 2 1 2 2
9 10 11 11 12 12 12 12 12 12 13 13 13 13 13 13 13 13 12 11 10 10 9 7 7 7 7 7 6 6 7 5 4 5 4 4 2 2 2 0 -0 2 1
9 9 9 10 11 11 11 10 10 11 11 11 12 12 12 12 11 11 11 11 9 8 6 5 4 4 5 4 4 5 5 4 4 3 3 2 2 3 2 0 0 1 0
8 8 8 9 9 10 11 10 9 10 10 10 10 10 11 11 11 11 10 10 7 5 4 3 3 3 3 2 3 2 4 3 3 3 1 -0 0 1 2 -0 -2 -1 -1
Height
1544 1547 1550 1552 1554 1557 1559 1561 1563 1565 1566 1567 1569 1570 1571 1571 1572 1573 1574 1575 1576 1576 1577 1577 1576 1575 1575 1575 1575 1575 1574 1573 1573 1572 1571 1570 1569 1568 1566 1564 1562 1559 1557
1543 1545 1548 1550 1552 1555 1557 1559 1561 1563 1564 1565 1566 1568 1569 1569 1570 1571 1572 1573 1574 1575 1575 1575 1574 1573 1573 1573 1573 1573 1572 1571 1571 1570 1568 1567 1566 1564 1562 1559 1556 1553 1551
1540 1543 1546 1548 1550 1553 1555 1557 1559 1560 1561 1562 1563 1565 1566 1567 1568 1568 1569 1570 1571 1572 1573 1573 1572 1571 1571 1570 1570 1570 1569 1568 1567 1566 1565 1564 1562 1560 1557 1554 1551 1548 1544
1537 1540 1542 1545 1548 1550 1552 1553 1555 1557 1558 1560 1561 1563 1564 1565 1566 1566 1567 1567 1569 1569 1570 1569 1569 1568 1567 1567 1567 1567 1566 1566 1564 1564 1563 1560 1558 1556 1553 1550 1546 1542 1538
1533 1536 1539 1542 1545 1547 1549 1551 1552 1554 1555 1557 1558 1560 1561 1562 1563 1563 1564 1565 1565 1565 1566 1566 1566 1566 1564 1563 1563 1564 1563 1562 1562 1561 1559 1557 1555 1551 1548 1544 1540 1536 1531
1528 1531 1534 1537 1541 1542 1544 1546 1548 1550 1551 1554 1555 1556 1558 1558 1559 1559 1559 1560 1560 1560 1561 1561 1562 1562 1561 1561 1560 1560 1559 1559 1558 1557 1555 1553 1549 1546 1542 1538 1534 1530 1526
1523 1525 1528 1531 1534 1535 1538 1541 1544 1545 1546 1549 1552 1552 1552 1552 1552 1553 1554 1554 1554 1555 1555 1556 1558 1558 1558 1557 1556 1556 1556 1555 1553 1552 1550 1547 1544 1541 1537 1533 1529 1524 1521
1518 1520 1523 1525 1529 1530 1532 1535 1537 1539 1541 1545 1546 1548 1548 1548 1544 1545 1547 1547 1549 1549 1550 1551 1552 1553 1553 1553 1552 1551 1550 1549 1549 1548 1545 1543 1539 1536 1532 1528 1524 1520 1516
1512 1515 1518 1520 1522 1525 1526 1528 1530 1532 1535 1538 1541 1544 1543 1539 1536 1537 1538 1540 1542 1543 1543 1545 1546 1547 1548 1549 1549 1547 1546 1545 1543 1543 1541 1538 1534 1530 1527 1523 1519 1515 1511
1504 1509 1512 1515 1517 1518 1519 1521 1524 1526 1530 1531 1535 1534 1535 1534 1533 1531 1530 1531 1534 1536 1537 1539 1540 1542 1543 1544 1545 1544 1542 1541 1539 1537 1535 1532 1528 1525 1521 1517 1513 1510 1506
1496 1501 1506 1509 1510 1513 1514 1514 1516 1518 1521 1524 1524 1528 1530 1529 1530 1529 1526 1526 1527 1529 1532 1533 1534 1536 1537 1538 1539 1539 1538 1537 1535 1534 1531 1528 1524 1520 1516 1512 1508 1504 1501
1490 1493 1497 1500 1502 1505 1507 1509 1510 1511 1513 1516 1517 1519 1519 1520 1521 1523 1523 1523 1524 1525 1527 1527 1528 1529 1530 1533 1534 1533 1532 1531 1530 1529 1526 1522 1518 1515 1511 1507 1503 1499 1495
1481 1484 1486 1488 1492 1495 1500 1503 1504 1505 1506 1508 1509 1508 1511 1511 1514 1515 1519 1520 1521 1521 1521 1523 1526 1525 1526 1527 1528 1527 1527 1526 1525 1523 1520 1517 1512 1508 1505 1501 1499 1495 1491
1474 1479 1481 1482 1485 1489 1493 1496 1497 1498 1499 1498 1500 1501 1502 1501 1504 1506 1510 1515 1517 1517 1516 1516 1517 1520 1522 1523 1524 1523 1522 1521 1519 1517 1514 1509 1506 1502 1498 1495 1492 1489 1486
1467 1472 1474 1476 1478 1481 1485 1487 1487 1489 1490 1491 1490 1492 1493 1494 1494 1497 1501 1505 1508 1510 1508 1509 1511 1513 1515 1517 1518 1517 1517 1515 1513 1511 1506 1503 1500 1496 1492 1489 1486 1482 1480
1461 1465 1468 1469 1470 1472 1476 1477 1477 1478 1481 1482 1482 1484 1483 1485 1486 1488 1493 1495 1497 1500 1501 1503 1505 1506 1508 1510 1510 1510 1510 1509 1507 1504 1500 1498 1493 1490 1487 1483 1481 1478 1474
1456 1459 1460 1463 1465 1466 1467 1468 1468 1468 1469 1475 1475 1476 1476 1477 1476 1479 1483 1485 1486 1489 1490 1491 1494 1492 1493 1500 1502 1502 1502 1502 1500 1498 1495 1491 1488 1484 1482 1480 1476 1472 1469
1449 1451 1453 1454 1458 1458 1458 1459 1460 1462 1462 1465 1465 1467 1465 1467 1468 1470 1474 1476 1476 1478 1479 1478 1476 1486 1484 1492 1497 1497 1496 1496 1494 1492 1489 1486 1484 1480 1477 1474 1470 1467 1462
1442 1443 1445 1445 1447 1450 1451 1452 1452 1453 1455 1455 1457 1456 1456 1458 1459 1460 1463 1465 1466 1468 1467 1462 1470 1481 1478 1483 1483 1491 1489 1489 1489 1489 1484 1481 1480 1477 1473 1469 1465 1462 1458
1437 1437 1438 1439 1439 1442 1445 1446 1445 1445 1446 1447 1447 1447 1449 1449 1451 1451 1452 1454 1456 1458 1458 1457 1464 1470 1473 1475 1480 1483 1483 1482 1483 1482 1479 1476 1474 1471 1469 1464 1461 1457 1453
1433 1433 1432 1432 1432 1434 1436 1436 1437 1437 1437 1438 1438 1439 1441 1442 1442 1442 1443 1445 1448 1452 1453 1455 1461 1464 1466 1466 1471 1474 1476 1476 1477 1477 1474 1472 1470 1468 1466 1460 1456 1452 1448
1426 1426 1425 1425 1424 1424 1426 1428 1428 1427 1428 1429 1430 1432 1434 1433 1433 1433 1434 1436 1438 1441 1445 1449 1453 1456 1458 1460 1465 1467 1469 1469 1471 1471 1468 1468 1466 1464 1461 1457 1452 1448 1444
1423 1422 1420 1418 1416 1416 1417 1418 1419 1419 1420 1421 1423 1424 1425 1424 1426 1426 1426 1428 1431 1433 1436 1440 1443 1448 1455 1454 1459 1460 1462 1464 1466 1464 1463 1463 1462 1461 1459 1454 1449 1445 1441
1420 1418 1417 1415 1413 1412 1410 1410 1411 1412 1412 1413 1415 1415 1416 1417 1418 1419 1422 1425 1424 1425 1428 1433 1440 1446 1450 1453 1454 1455 1455 1458 1461 1459 1457 1458 1460 1456 1453 1452 1448 1443 1438
1415 1413 1413 1411 1409 1408 1405 1404 1404 1404 1404 1405 1407 1408 1407 1408 1411 1413 1415 1415 1418 1420 1421 1429 1435 1441 1445 1449 1453 1454 1448 1452 1453 1456 1456 1455 1454 1451 1447 1447 1446 1440 1436
1409 1408 1408 1407 1405 1403 1401 1399 1398 1397 1396 1397 1398 1400 1400 1401 1403 1402 1405 1405 1411 1410 1415 1422 1427 1436 1439 1448 1446 1449 1447 1452 1451 1449 1453 1455 1454 1449 1445 1445 1444 1439 1433
Wind_Speed
24 23 21 20 19 18 17 16 15 15 14 14 15 16 15 13 13 14 12 10 11 10 11 13 11 11 10 8 7 9 11 12 13 14 15 15 14 16 19 21 24 26 28
25 24 22 21 20 19 17 16 15 15 15 16 16 17 14 13 14 15 16 14 13 12 14 13 12 10 9 9 10 12 13 14 15 16 14 14 17 19 22 24 27 28 30
26 25 23 22 21 18 17 18 18 17 17 17 18 18 16 15 15 17 16 16 13 12 12 13 12 12 11 13 14 15 15 16 16 14 14 17 19 22 24 27 29 30 30
28 27 26 24 21 20 18 18 19 19 19 19 18 17 15 14 14 14 12 15 14 15 16 15 14 13 13 13 15 16 17 17 15 16 17 19 22 24 26 28 29 29 30
30 30 29 26 22 22 22 19 20 20 19 20 19 16 14 16 14 15 16 17 17 18 18 18 18 17 17 18 17 18 16 16 17 17 17 20 23 25 27 28 29 30 32
34 33 32 29 25 25 25 24 24 22 21 19 18 18 17 18 18 21 23 21 24 25 23 20 19 20 20 21 19 18 17 16 17 18 19 21 24 26 29 30 30 31 32
33 33 32 32 31 31 30 28 26 26 26 22 21 23 22 21 23 25 26 27 29 29 27 22 21 21 23 22 22 20 18 19 19 20 21 23 27 29 30 30 31 31 32
33 34 32 32 33 34 34 33 32 32 32 28 29 28 26 29 33 34 32 31 30 27 27 25 23 24 23 22 22 21 20 20 21 21 23 24 27 29 30 30 31 31 31
35 34 34 33 33 35 37 38 38 38 37 35 35 27 16 20 18 33 37 36 33 30 30 29 26 27 27 25 24 23 22 22 23 22 24 26 29 29 30 30 29 30 29
38 36 36 37 37 36 38 39 40 42 41 43 39 40 38 20 16 13 23 30 33 32 32 31 31 31 29 26 25 24 24 24 24 24 25 27 29 30 30 29 28 28 26
45 42 40 40 41 40 40 41 43 44 45 46 45 43 43 46 39 30 24 24 28 33 31 30 30 32 29 28 25 25 24 24 22 24 25 27 28 30 30 28 28 26 22
47 46 46 45 44 44 44 43 43 45 47 47 49 48 48 48 48 42 36 30 26 30 33 32 32 32 31 28 26 24 24 24 22 24 26 27 29 30 30 28 26 23 20
47 45 46 47 49 48 47 45 46 46 47 50 51 53 51 52 49 45 43 36 27 31 32 33 33 33 31 30 27 25 24 24 23 24 26 28 29 29 29 26 25 23 21
43 43 44 44 45 46 47 48 48 46 46 49 52 53 53 54 53 52 47 40 32 27 35 33 36 34 32 29 28 27 25 24 24 24 27 28 29 29 29 27 25 24 23
39 41 41 38 39 41 46 47 48 47 46 47 49 52 53 54 54 53 51 47 40 32 34 37 32 33 33 31 31 28 27 24 24 25 27 29 29 29 28 27 26 25 25
39 41 37 38 36 42 46 49 49 50 48 48 47 50 53 52 53 51 48 48 45 42 37 33 33 32 31 35 34 31 28 26 26 26 28 29 28 27 28 27 27 27 27
39 38 39 41 41 43 44 46 48 50 48 47 46 48 50 49 51 48 48 48 45 42 44 37 26 33 36 37 34 32 28 25 25 27 27 28 27 26 28 27 28 27 28
32 34 36 40 38 40 42 45 46 47 48 47 46 45 46 49 46 47 45 47 49 44 47 47 30 40 36 35 33 31 27 25 25 26 27 27 25 26 28 28 28 26 27
26 30 31 33 33 36 39 42 42 44 46 45 44 43 43 46 46 46 47 47 49 46 49 41 41 38 35 34 33 32 26 24 24 25 26 23 23 26 26 27 26 26 28
23 28 33 34 35 32 33 35 38 38 40 41 39 40 42 44 44 46 46 47 47 46 45 35 34 37 36 33 33 30 26 22 22 23 21 19 20 23 25 24 24 26 27
20 25 28 33 34 33 31 32 33 34 35 35 37 39 40 39 42 43 46 46 45 44 42 38 38 39 37 36 34 28 24 19 20 19 17 17 18 19 19 20 22 24 25
19 19 22 29 30 33 34 26 24 28 31 33 33 36 37 38 40 45 45 44 44 38 42 42 41 42 39 34 30 25 18 15 15 16 15 16 16 14 16 19 20 21 22
23 22 21 22 26 31 30 30 31 31 30 31 35 37 38 37 34 34 46 48 43 40 39 39 41 40 35 31 26 19 14 14 14 13 13 14 14 14 16 13 15 19 21
27 27 26 24 23 24 28 31 32 32 34 34 35 35 37 36 35 35 34 38 38 38 37 33 29 28 27 22 18 15 12 11 11 12 11 9 12 12 14 10 16 22 22
28 29 29 28 26 23 23 25 28 32 34 33 34 33 30 34 34 39 38 38 39 37 33 29 27 24 20 15 13 13 9 10 9 9 7 6 9 12 9 7 18 20 23
31 30 29 28 28 26 23 23 24 26 30 30 30 33 37 35 42 37 43 41 41 37 35 33 29 22 19 15 15 12 7 11 8 6 5 5 6 10 6 6 14 21 21
Wind_Direction
208 208 209 210 211 213 214 214 213 214 214 215 215 214 217 206 215 222 238 244 243 259 279 299 299 281 275 268 271 275 281 286 291 294 296 298 300 303 304 304 304 304 302
213 216 216 216 216 219 222 223 224 225 224 224 223 222 227 221 227 236 249 254 254 266 280 291 296 281 267 265 270 280 285 287 288 291 291 294 301 303 305 306 306 305 303
214 220 221 221 221 222 227 229 229 227 226 225 227 232 241 240 246 258 252 250 258 276 269 283 281 279 266 266 272 276 281 285 290 287 291 298 301 305 307 308 309 309 308
221 221 225 224 222 223 223 230 229 232 231 231 232 234 242 238 235 243 268 248 255 254 270 276 273 276 276 276 278 283 284 286 283 289 297 300 303 307 309 311 311 312 311
224 228 228 229 225 224 225 228 229 230 233 233 236 238 236 234 239 250 253 254 244 258 266 273 271 271 272 277 276 280 277 276 283 288 292 298 305 310 312 313 316 317 320
225 228 231 231 228 230 229 227 230 231 236 239 245 247 245 247 251 247 251 257 252 263 270 257 262 269 265 274 281 271 270 277 283 290 299 308 311 315 316 318 319 318 317
220 223 226 228 228 231 233 231 234 236 239 238 242 248 243 242 245 249 249 253 256 263 262 250 258 262 259 263 273 271 275 286 293 301 306 313 317 317 316 316 316 318 314
223 224 225 225 226 229 234 234 233 236 239 237 232 239 246 249 245 249 251 252 252 256 249 247 249 257 260 265 273 272 279 288 296 303 307 311 313 314 316 317 318 315 313
228 229 231 231 231 232 233 233 234 235 237 237 236 230 227 236 248 249 249 249 249 247 242 243 245 252 255 265 275 277 284 290 298 302 305 309 313 315 316 317 316 313 311
235 233 238 239 237 238 238 236 235 235 236 240 237 237 235 249 249 254 248 243 240 238 238 242 246 247 252 260 269 277 283 290 295 299 303 309 312 314 314 313 312 313 309
239 239 240 243 245 242 243 243 240 237 237 239 242 240 238 239 247 255 264 251 237 233 237 243 246 246 251 262 264 272 276 282 288 294 301 307 310 310 310 313 316 314 306
234 239 242 244 246 248 247 247 247 246 243 242 246 246 245 239 237 241 249 255 247 239 236 238 241 245 252 253 260 265 276 283 285 293 299 308 309 309 310 315 315 312 312
235 238 241 243 245 249 252 251 251 251 250 247 245 249 250 250 250 247 245 249 251 239 231 230 238 246 248 252 256 261 271 274 281 290 301 306 307 308 311 314 314 313 311
245 245 243 244 249 253 255 255 255 256 255 254 252 250 251 254 253 253 248 243 242 240 236 236 234 236 244 249 251 256 262 268 279 295 302 306 310 308 309 312 312 311 311
252 251 252 254 255 258 258 257 258 258 257 257 257 256 255 255 256 257 256 252 242 240 237 234 233 237 241 246 249 257 264 271 285 297 305 307 305 306 309 310 309 311 311
255 255 257 262 263 262 260 257 259 259 258 257 258 258 258 256 258 260 257 256 253 248 244 243 241 246 246 243 248 253 260 271 286 295 297 301 305 307 307 305 309 311 309
255 260 260 260 261 261 262 262 263 264 262 262 262 261 261 262 259 264 260 255 250 246 243 238 248 254 242 240 242 246 257 270 283 291 297 301 303 304 302 303 304 305 308
247 245 253 261 258 259 260 259 261 262 263 264 263 261 261 261 264 262 261 257 253 249 246 236 252 232 224 230 237 243 253 268 280 287 294 298 298 296 296 297 303 304 305
241 243 249 255 260 261 260 260 260 262 263 265 264 265 264 264 263 261 259 257 249 245 247 235 227 223 220 223 235 241 251 264 275 284 288 291 289 288 294 298 302 305 309
264 255 252 256 260 263 263 262 262 263 264 265 266 266 267 267 268 266 260 259 251 242 242 232 234 227 219 231 228 238 249 260 274 279 283 284 282 289 293 299 302 304 308
279 266 264 261 261 263 267 265 264 265 262 265 266 265 266 268 270 270 263 259 255 243 239 233 229 223 227 223 230 238 243 257 270 273 275 281 290 291 293 299 301 304 309
308 301 285 272 268 262 258 264 267 264 264 264 265 267 267 271 266 266 262 268 263 252 244 235 230 232 228 225 228 231 242 262 266 269 280 291 294 296 300 302 305 314 318
308 310 305 292 276 268 267 262 262 266 268 267 266 265 264 266 269 275 254 254 245 248 241 238 230 227 233 224 228 229 251 258 262 270 285 294 297 312 317 315 323 324 327
311 310 310 307 297 278 272 265 264 259 261 263 265 267 266 265 266 266 259 255 242 233 229 224 227 232 224 223 221 238 249 256 259 270 279 295 304 319 323 320 334 333 342
305 307 305 305 301 298 287 268 265 260 261 262 266 267 265 257 269 267 249 248 233 223 215 212 212 214 213 220 240 250 242 238 255 269 291 299 305 318 324 321 342 345 350
299 297 300 301 301 299 296 280 267 268 262 261 263 268 268 264 262 252 246 237 220 209 206 201 197 201 203 228 228 229 255 263 248 266 285 309 325 353 351 330 354 354 356